Time,TemperatureF,DewpointF,PressureIn,WindDirection,WindDirectionDegrees,WindSpeedMPH,WindSpeedGustMPH,Humidity,HourlyPrecipIn,Conditions,Clouds,dailyrainin,SolarRadiationWatts/m^2,SoftwareType,DateUTC
2013-05-14 00:01:00,65.0,28.4,29.81,NNW,338,1.0,1.0,25,0.00,,CLR,0.00,0.00,VWS V14.01,2013-05-14 07:01:00,
2013-05-14 00:06:00,64.7,28.1,29.81,NNW,338,0.0,1.0,25,0.00,,CLR,0.00,0.00,VWS V14.01,2013-05-14 07:06:00,
2013-05-14 00:11:00,64.6,28.0,29.81,NNW,338,0.0,0.0,25,0.00,,CLR,0.00,0.00,VWS V14.01,2013-05-14 07:11:00,
2013-05-14 00:16:00,64.5,27.9,29.81,NNW,338,0.0,1.0,25,0.00,,CLR,0.00,0.00,VWS V14.01,2013-05-14 07:16:00,
2013-05-14 00:21:00,64.5,27.9,29.82,NNW,338,0.0,1.0,25,0.00,,CLR,0.00,0.00,VWS V14.01,2013-05-14 07:21:00,
2013-05-14 00:26:00,64.5,27.9,29.82,NNW,338,2.0,2.0,25,0.00,,CLR,0.00,0.00,VWS V14.01,2013-05-14 07:26:00,
2013-05-14 00:31:00,64.2,27.7,29.82,NNW,338,0.0,0.0,25,0.00,,CLR,0.00,0.00,VWS V14.01,2013-05-14 07:31:00,
2013-05-14 00:36:00,64.0,27.5,29.82,NNW,338,0.0,0.0,25,0.00,,CLR,0.00,0.00,VWS V14.01,2013-05-14 07:36:00,
2013-05-14 00:41:00,63.8,27.3,29.82,NNW,338,0.0,0.0,25,0.00,,CLR,0.00,0.00,VWS V14.01,2013-05-14 07:41:00,
2013-05-14 00:46:00,63.4,27.9,29.82,ENE,69,2.0,3.0,26,0.00,,CLR,0.00,0.00,VWS V14.01,2013-05-14 07:46:00,
2013-05-14 00:51:00,62.4,28.0,29.82,ENE,69,2.0,2.0,27,0.00,,CLR,0.00,0.00,VWS V14.01,2013-05-14 07:51:00,
2013-05-14 00:56:00,61.6,28.2,29.83,SW,236,0.0,0.0,28,0.00,,CLR,0.00,0.00,VWS V14.01,2013-05-14 07:56:00,
2013-05-14 01:01:00,60.7,28.3,29.82,NW,323,1.0,2.0,29,0.00,,CLR,0.00,0.00,VWS V14.01,2013-05-14 08:01:00,
2013-05-14 01:06:00,60.3,27.9,29.82,NW,324,0.0,0.0,29,0.00,,CLR,0.00,0.00,VWS V14.01,2013-05-14 08:06:00,
2013-05-14 01:11:00,60.5,28.9,29.82,NW,324,0.0,1.0,30,0.00,,CLR,0.00,0.00,VWS V14.01,2013-05-14 08:11:00,
2013-05-14 01:16:00,60.4,28.9,29.82,NW,324,0.0,0.0,30,0.00,,CLR,0.00,0.00,VWS V14.01,2013-05-14 08:16:00,
2013-05-14 01:21:00,60.3,28.8,29.82,NW,324,0.0,1.0,30,0.00,,CLR,0.00,0.00,VWS V14.01,2013-05-14 08:21:00,
2013-05-14 01:26:00,60.2,28.7,29.82,WNW,284,0.0,2.0,30,0.00,,CLR,0.00,0.00,VWS V14.01,2013-05-14 08:26:00,
2013-05-14 01:31:00,60.0,28.5,29.82,WNW,284,0.0,0.0,30,0.00,,CLR,0.00,0.00,VWS V14.01,2013-05-14 08:31:00,
2013-05-14 01:36:00,59.9,28.4,29.82,WNW,284,0.0,0.0,30,0.00,,CLR,0.00,0.00,VWS V14.01,2013-05-14 08:36:00,
2013-05-14 01:41:00,59.8,28.3,29.82,WNW,284,0.0,0.0,30,0.00,,CLR,0.00,0.00,VWS V14.01,2013-05-14 08:41:00,
2013-05-14 01:46:00,59.4,28.8,29.82,WNW,284,0.0,0.0,31,0.00,,CLR,0.00,0.00,VWS V14.01,2013-05-14 08:46:00,
2013-05-14 01:51:00,58.8,28.3,29.82,WNW,284,0.0,0.0,31,0.00,,CLR,0.00,0.00,VWS V14.01,2013-05-14 08:51:00,
2013-05-14 01:56:00,58.2,30.0,29.82,WNW,284,0.0,0.0,34,0.00,,CLR,0.00,0.00,VWS V14.01,2013-05-14 08:56:00,
2013-05-14 02:01:00,57.8,28.9,29.82,WNW,284,0.0,0.0,33,0.00,,CLR,0.00,0.00,VWS V14.01,2013-05-14 09:01:00,
2013-05-14 02:06:00,57.7,29.5,29.82,WNW,284,0.0,0.0,34,0.00,,CLR,0.00,0.00,VWS V14.01,2013-05-14 09:06:00,
2013-05-14 02:11:00,57.4,29.3,29.82,WNW,284,1.0,1.0,34,0.00,,CLR,0.00,0.00,VWS V14.01,2013-05-14 09:11:00,
2013-05-14 02:16:00,57.0,28.9,29.82,WNW,284,1.0,2.0,34,0.00,,CLR,0.00,0.00,VWS V14.01,2013-05-14 09:16:00,
2013-05-14 02:21:00,56.9,28.8,29.82,WNW,284,0.0,0.0,34,0.00,,CLR,0.00,0.00,VWS V14.01,2013-05-14 09:21:00,
2013-05-14 02:26:00,57.2,28.4,29.82,WNW,284,0.0,1.0,33,0.00,,CLR,0.00,0.00,VWS V14.01,2013-05-14 09:26:00,
2013-05-14 02:31:00,57.1,28.3,29.82,WNW,284,0.0,0.0,33,0.00,,CLR,0.00,0.00,VWS V14.01,2013-05-14 09:31:00,
2013-05-14 02:36:00,56.9,28.8,29.82,East,91,1.0,5.0,34,0.00,,CLR,0.00,0.00,VWS V14.01,2013-05-14 09:36:00,
2013-05-14 02:41:00,56.6,30.0,29.82,East,83,0.0,2.0,36,0.00,,CLR,0.00,0.00,VWS V14.01,2013-05-14 09:41:00,
2013-05-14 02:46:00,56.4,29.8,29.82,East,83,0.0,0.0,36,0.00,,CLR,0.00,0.00,VWS V14.01,2013-05-14 09:46:00,
2013-05-14 02:51:00,56.2,30.3,29.82,East,83,0.0,1.0,37,0.00,,CLR,0.00,0.00,VWS V14.01,2013-05-14 09:51:00,
2013-05-14 02:56:00,56.1,30.2,29.82,East,83,0.0,1.0,37,0.00,,CLR,0.00,0.00,VWS V14.01,2013-05-14 09:56:00,
2013-05-14 03:01:00,56.0,30.1,29.82,East,83,0.0,0.0,37,0.00,,CLR,0.00,0.00,VWS V14.01,2013-05-14 10:01:00,
2013-05-14 03:06:00,55.9,29.4,29.82,East,83,1.0,2.0,36,0.00,,CLR,0.00,0.00,VWS V14.01,2013-05-14 10:06:00,
2013-05-14 03:11:00,55.7,29.2,29.82,East,83,2.0,2.0,36,0.00,,CLR,0.00,0.00,VWS V14.01,2013-05-14 10:11:00,
2013-05-14 03:17:00,55.5,29.0,29.82,East,83,0.0,1.0,36,0.00,,CLR,0.00,0.00,VWS V14.01,2013-05-14 10:17:00,
2013-05-14 03:22:00,55.4,28.9,29.82,East,83,0.0,0.0,36,0.00,,CLR,0.00,0.00,VWS V14.01,2013-05-14 10:22:00,
2013-05-14 03:27:00,55.3,28.8,29.82,East,83,0.0,0.0,36,0.00,,CLR,0.00,0.00,VWS V14.01,2013-05-14 10:27:00,
2013-05-14 03:32:00,55.1,28.6,29.82,East,83,0.0,0.0,36,0.00,,CLR,0.00,0.00,VWS V14.01,2013-05-14 10:32:00,
2013-05-14 03:37:00,54.8,30.3,29.83,East,83,0.0,1.0,39,0.00,,CLR,0.00,0.00,VWS V14.01,2013-05-14 10:37:00,
2013-05-14 03:42:00,54.4,30.0,29.82,East,83,0.0,0.0,39,0.00,,CLR,0.00,0.00,VWS V14.01,2013-05-14 10:42:00,
2013-05-14 03:47:00,54.0,30.9,29.82,East,83,0.0,0.0,41,0.00,,CLR,0.00,0.00,VWS V14.01,2013-05-14 10:47:00,
2013-05-14 03:52:00,53.5,29.8,29.82,East,83,0.0,0.0,40,0.00,,CLR,0.00,0.00,VWS V14.01,2013-05-14 10:52:00,
2013-05-14 03:57:00,53.2,30.1,29.82,East,83,0.0,0.0,41,0.00,,CLR,0.00,0.00,VWS V14.01,2013-05-14 10:57:00,
2013-05-14 04:02:00,53.0,30.0,29.82,East,83,0.0,0.0,41,0.00,,CLR,0.00,0.00,VWS V14.01,2013-05-14 11:02:00,
2013-05-14 04:07:00,52.8,29.8,29.82,East,83,0.0,0.0,41,0.00,,CLR,0.00,0.00,VWS V14.01,2013-05-14 11:07:00,
2013-05-14 04:12:00,52.4,31.7,29.82,East,83,0.0,0.0,45,0.00,,CLR,0.00,0.00,VWS V14.01,2013-05-14 11:12:00,
2013-05-14 04:17:00,52.2,31.0,29.82,East,83,0.0,1.0,44,0.00,,CLR,0.00,0.00,VWS V14.01,2013-05-14 11:17:00,
2013-05-14 04:22:00,52.0,30.8,29.82,East,83,0.0,0.0,44,0.00,,CLR,0.00,0.00,VWS V14.01,2013-05-14 11:22:00,
2013-05-14 04:27:00,51.9,30.1,29.82,East,83,0.0,0.0,43,0.00,,CLR,0.00,0.00,VWS V14.01,2013-05-14 11:27:00,
2013-05-14 04:32:00,51.7,31.1,29.82,East,83,1.0,1.0,45,0.00,,CLR,0.00,0.00,VWS V14.01,2013-05-14 11:32:00,
2013-05-14 04:37:00,51.6,31.0,29.81,East,83,0.0,1.0,45,0.00,,CLR,0.00,0.00,VWS V14.01,2013-05-14 11:37:00,
2013-05-14 04:42:00,51.4,31.3,29.81,East,83,0.0,0.0,46,0.00,,CLR,0.00,0.00,VWS V14.01,2013-05-14 11:42:00,
2013-05-14 04:47:00,51.4,31.3,29.82,East,83,0.0,1.0,46,0.00,,CLR,0.00,0.00,VWS V14.01,2013-05-14 11:47:00,
2013-05-14 04:52:00,51.3,31.8,29.81,NE,51,0.0,1.0,47,0.00,,CLR,0.00,0.00,VWS V14.01,2013-05-14 11:52:00,
2013-05-14 04:57:00,51.4,31.9,29.82,NE,51,0.0,0.0,47,0.00,,CLR,0.00,0.00,VWS V14.01,2013-05-14 11:57:00,
2013-05-14 05:02:00,51.4,31.9,29.81,NE,51,0.0,0.0,47,0.00,,CLR,0.00,0.00,VWS V14.01,2013-05-14 12:02:00,
2013-05-14 05:07:00,51.5,32.0,29.81,NE,51,0.0,0.0,47,0.00,,CLR,0.00,0.00,VWS V14.01,2013-05-14 12:07:00,
2013-05-14 05:12:00,51.5,32.0,29.81,NE,51,0.0,1.0,47,0.00,,CLR,0.00,0.00,VWS V14.01,2013-05-14 12:12:00,
2013-05-14 05:17:00,51.6,31.5,29.81,NE,48,1.0,2.0,46,0.00,,CLR,0.00,0.00,VWS V14.01,2013-05-14 12:17:00,
2013-05-14 05:22:00,51.7,31.6,29.81,NNW,340,0.0,2.0,46,0.00,,CLR,0.00,0.00,VWS V14.01,2013-05-14 12:22:00,
2013-05-14 05:27:00,52.1,32.0,29.81,NNW,340,1.0,2.0,46,0.00,,CLR,0.00,0.00,VWS V14.01,2013-05-14 12:27:00,
2013-05-14 05:32:00,52.3,31.6,29.82,NNW,333,0.0,1.0,45,0.00,,CLR,0.00,0.00,VWS V14.01,2013-05-14 12:32:00,
2013-05-14 05:37:00,52.4,31.1,29.81,NNW,333,0.0,1.0,44,0.00,,CLR,0.00,7.00,VWS V14.01,2013-05-14 12:37:00,
2013-05-14 05:42:00,52.5,31.2,29.81,NW,326,2.0,2.0,44,0.00,,CLR,0.00,9.00,VWS V14.01,2013-05-14 12:42:00,
2013-05-14 05:47:00,53.2,31.3,29.81,NW,317,1.0,3.0,43,0.00,,CLR,0.00,12.00,VWS V14.01,2013-05-14 12:47:00,
2013-05-14 05:52:00,53.9,31.4,29.81,NW,317,1.0,2.0,42,0.00,,CLR,0.00,14.00,VWS V14.01,2013-05-14 12:52:00,
2013-05-14 05:57:00,54.2,31.0,29.81,NW,317,1.0,2.0,41,0.00,,CLR,0.00,18.00,VWS V14.01,2013-05-14 12:57:00,
2013-05-14 06:02:00,54.8,31.6,29.81,NW,314,2.0,4.0,41,0.00,,CLR,0.00,21.00,VWS V14.01,2013-05-14 13:02:00,
2013-05-14 06:07:00,55.4,31.5,29.81,NW,313,3.0,3.0,40,0.00,,CLR,0.00,25.00,VWS V14.01,2013-05-14 13:07:00,
2013-05-14 06:12:00,55.9,31.3,29.81,NW,308,1.0,4.0,39,0.00,,CLR,0.00,32.00,VWS V14.01,2013-05-14 13:12:00,
2013-05-14 06:17:00,56.2,31.6,29.81,NW,309,2.0,3.0,39,0.00,,CLR,0.00,33.00,VWS V14.01,2013-05-14 13:17:00,
2013-05-14 06:22:00,56.4,31.8,29.81,NW,309,2.0,4.0,39,0.00,,BKN300,0.00,33.00,VWS V14.01,2013-05-14 13:22:00,
2013-05-14 06:27:00,56.6,31.3,29.81,NW,308,0.0,3.0,38,0.00,,BKN300,0.00,23.00,VWS V14.01,2013-05-14 13:27:00,
2013-05-14 06:32:00,56.7,31.4,29.81,NW,308,0.0,1.0,38,0.00,,BKN300,0.00,23.00,VWS V14.01,2013-05-14 13:32:00,
2013-05-14 06:37:00,56.8,31.5,29.81,NW,308,0.0,0.0,38,0.00,,BKN300,0.00,28.00,VWS V14.01,2013-05-14 13:37:00,
2013-05-14 06:42:00,56.8,31.5,29.81,NW,308,0.0,0.0,38,0.00,,BKN300,0.00,40.00,VWS V14.01,2013-05-14 13:42:00,
2013-05-14 06:47:00,56.7,31.4,29.82,NW,308,0.0,0.0,38,0.00,,BKN300,0.00,44.00,VWS V14.01,2013-05-14 13:47:00,
2013-05-14 06:52:00,56.6,32.0,29.82,NW,308,1.0,1.0,39,0.00,,BKN300,0.00,74.00,VWS V14.01,2013-05-14 13:52:00,
2013-05-14 06:57:00,56.6,32.0,29.81,NW,308,0.0,0.0,39,0.00,,BKN300,0.00,153.00,VWS V14.01,2013-05-14 13:57:00,
2013-05-14 07:02:00,57.1,32.4,29.81,NW,308,0.0,0.0,39,0.00,,SCT300,0.00,169.00,VWS V14.01,2013-05-14 14:02:00,
2013-05-14 07:07:00,57.6,32.8,29.81,NW,308,0.0,1.0,39,0.00,,SCT300,0.00,186.00,VWS V14.01,2013-05-14 14:07:00,
2013-05-14 07:12:00,58.2,32.7,29.81,NW,308,0.0,1.0,38,0.00,,SCT300,0.00,197.00,VWS V14.01,2013-05-14 14:12:00,
2013-05-14 07:17:00,59.3,33.7,29.81,NW,308,0.0,1.0,38,0.00,,SCT300,0.00,214.00,VWS V14.01,2013-05-14 14:17:00,
2013-05-14 07:22:00,60.4,33.3,29.81,NW,308,2.0,3.0,36,0.00,,SCT300,0.00,230.00,VWS V14.01,2013-05-14 14:22:00,
2013-05-14 07:27:00,61.2,32.6,29.81,NW,308,1.0,3.0,34,0.00,,SCT300,0.00,246.00,VWS V14.01,2013-05-14 14:27:00,
2013-05-14 07:32:00,62.3,32.9,29.81,NW,309,2.0,5.0,33,0.00,,SCT300,0.00,267.00,VWS V14.01,2013-05-14 14:32:00,
2013-05-14 07:37:00,63.6,33.2,29.81,NW,308,0.0,4.0,32,0.00,,SCT300,0.00,279.00,VWS V14.01,2013-05-14 14:37:00,
2013-05-14 07:42:00,65.0,32.8,29.81,NW,308,0.0,3.0,30,0.00,,SCT300,0.00,295.00,VWS V14.01,2013-05-14 14:42:00,
2013-05-14 07:47:00,66.0,32.9,29.80,WNW,297,3.0,5.0,29,0.00,,SCT300,0.00,311.00,VWS V14.01,2013-05-14 14:47:00,
2013-05-14 07:52:00,66.8,33.5,29.80,WNW,301,0.0,4.0,29,0.00,,SCT300,0.00,325.00,VWS V14.01,2013-05-14 14:52:00,
2013-05-14 07:57:00,67.8,34.4,29.80,WNW,288,1.0,5.0,29,0.00,,SCT300,0.00,339.00,VWS V14.01,2013-05-14 14:57:00,
2013-05-14 08:02:00,68.4,34.0,29.80,WNW,285,2.0,4.0,28,0.00,,SCT300,0.00,357.00,VWS V14.01,2013-05-14 15:02:00,
2013-05-14 08:07:00,69.1,33.7,29.80,WNW,284,1.0,6.0,27,0.00,,SCT300,0.00,371.00,VWS V14.01,2013-05-14 15:07:00,
2013-05-14 08:12:00,69.5,34.1,29.80,NW,313,4.0,6.0,27,0.00,,SCT300,0.00,390.00,VWS V14.01,2013-05-14 15:12:00,
2013-05-14 08:17:00,70.0,34.5,29.79,WNW,293,3.0,7.0,27,0.00,,SCT300,0.00,404.00,VWS V14.01,2013-05-14 15:17:00,
2013-05-14 08:22:00,70.8,35.2,29.79,West,273,5.0,7.0,27,0.00,,SCT300,0.00,422.00,VWS V14.01,2013-05-14 15:22:00,
2013-05-14 08:27:00,71.5,34.8,29.79,WNW,300,3.0,5.0,26,0.00,,SCT300,0.00,434.00,VWS V14.01,2013-05-14 15:27:00,
2013-05-14 08:32:00,71.6,34.9,29.79,NW,307,1.0,5.0,26,0.00,,SCT300,0.00,452.00,VWS V14.01,2013-05-14 15:32:00,
2013-05-14 08:37:00,72.0,35.3,29.79,WNW,288,9.0,9.0,26,0.00,,SCT300,0.00,466.00,VWS V14.01,2013-05-14 15:37:00,
2013-05-14 08:42:00,72.5,35.7,29.79,NNW,338,4.0,5.0,26,0.00,,SCT300,0.00,482.00,VWS V14.01,2013-05-14 15:42:00,
2013-05-14 08:47:00,72.8,35.0,29.79,NNW,334,3.0,5.0,25,0.00,,SCT300,0.00,497.00,VWS V14.01,2013-05-14 15:47:00,
2013-05-14 08:52:00,73.1,34.2,29.79,WNW,302,0.0,4.0,24,0.00,,SCT300,0.00,512.00,VWS V14.01,2013-05-14 15:52:00,
2013-05-14 08:57:00,73.8,34.8,29.79,NNW,335,0.0,4.0,24,0.00,,SCT300,0.00,527.00,VWS V14.01,2013-05-14 15:57:00,
2013-05-14 09:02:00,74.3,34.1,29.79,NW,321,3.0,5.0,23,0.00,,SCT300,0.00,540.00,VWS V14.01,2013-05-14 16:02:00,
2013-05-14 09:07:00,74.8,34.6,29.79,West,277,1.0,5.0,23,0.00,,SCT300,0.00,554.00,VWS V14.01,2013-05-14 16:07:00,
2013-05-14 09:12:00,75.7,34.2,29.78,NW,321,3.0,5.0,22,0.00,,SCT300,0.00,568.00,VWS V14.01,2013-05-14 16:12:00,
2013-05-14 09:17:00,76.0,33.3,29.78,NNW,336,3.0,6.0,21,0.00,,SCT300,0.00,584.00,VWS V14.01,2013-05-14 16:17:00,
2013-05-14 09:22:00,76.1,33.4,29.78,WNW,294,0.0,8.0,21,0.00,,SCT300,0.00,596.00,VWS V14.01,2013-05-14 16:22:00,
2013-05-14 09:27:00,77.1,33.0,29.78,WNW,290,4.0,4.0,20,0.00,,SCT300,0.00,612.00,VWS V14.01,2013-05-14 16:27:00,
2013-05-14 09:32:00,78.0,33.7,29.78,North,350,3.0,5.0,20,0.00,,SCT300,0.00,628.00,VWS V14.01,2013-05-14 16:32:00,
2013-05-14 09:37:00,78.0,32.4,29.77,North,9,1.0,1.0,19,0.00,,SCT300,0.00,638.00,VWS V14.01,2013-05-14 16:37:00,
2013-05-14 09:42:00,78.7,33.0,29.77,NNE,32,1.0,5.0,19,0.00,,SCT300,0.00,652.00,VWS V14.01,2013-05-14 16:42:00,
2013-05-14 09:47:00,79.6,33.8,29.77,NNE,33,0.0,3.0,19,0.00,,SCT300,0.00,663.00,VWS V14.01,2013-05-14 16:47:00,
2013-05-14 09:52:00,80.0,32.7,29.77,ENE,64,2.0,5.0,18,0.00,,SCT300,0.00,677.00,VWS V14.01,2013-05-14 16:52:00,
2013-05-14 09:57:00,79.9,31.2,29.77,ESE,119,2.0,4.0,17,0.00,,SCT300,0.00,691.00,VWS V14.01,2013-05-14 16:57:00,
2013-05-14 10:02:00,80.2,31.5,29.76,ESE,119,0.0,1.0,17,0.00,,SCT300,0.00,693.00,VWS V14.01,2013-05-14 17:02:00,
2013-05-14 10:07:00,80.9,30.5,29.76,NNE,28,1.0,4.0,16,0.00,,SCT300,0.00,715.00,VWS V14.01,2013-05-14 17:07:00,
2013-05-14 10:12:00,80.7,31.9,29.76,NW,317,2.0,4.0,17,0.00,,SCT300,0.00,726.00,VWS V14.01,2013-05-14 17:12:00,
2013-05-14 10:17:00,81.1,29.1,29.76,NNE,12,5.0,7.0,15,0.00,,SCT300,0.00,731.00,VWS V14.01,2013-05-14 17:17:00,
2013-05-14 10:22:00,80.8,30.5,29.76,NE,56,0.0,5.0,16,0.00,,SCT300,0.00,761.00,VWS V14.01,2013-05-14 17:22:00,
2013-05-14 10:27:00,81.2,30.8,29.76,NNW,346,3.0,5.0,16,0.00,,SCT300,0.00,777.00,VWS V14.01,2013-05-14 17:27:00,
2013-05-14 10:32:00,81.0,29.0,29.76,ENE,63,4.0,9.0,15,0.00,,SCT300,0.00,714.00,VWS V14.01,2013-05-14 17:32:00,
2013-05-14 10:37:00,81.4,29.4,29.76,North,5,6.0,8.0,15,0.00,,SCT300,0.00,659.00,VWS V14.01,2013-05-14 17:37:00,
2013-05-14 10:42:00,80.4,28.6,29.75,North,5,2.0,5.0,15,0.00,,SCT300,0.00,705.00,VWS V14.01,2013-05-14 17:42:00,
2013-05-14 10:47:00,80.7,28.8,29.75,North,355,3.0,6.0,15,0.00,,SCT300,0.00,677.00,VWS V14.01,2013-05-14 17:47:00,
2013-05-14 10:52:00,81.0,29.0,29.75,NNE,20,0.0,3.0,15,0.00,,SCT300,0.00,772.00,VWS V14.01,2013-05-14 17:52:00,
2013-05-14 10:57:00,82.5,28.5,29.75,NE,46,5.0,7.0,14,0.00,,SCT300,0.00,805.00,VWS V14.01,2013-05-14 17:57:00,
2013-05-14 11:02:00,82.0,28.1,29.75,NE,40,7.0,7.0,14,0.00,,SCT300,0.00,809.00,VWS V14.01,2013-05-14 18:02:00,
2013-05-14 11:07:00,81.5,27.8,29.75,NNW,331,5.0,9.0,14,0.00,,SCT300,0.00,812.00,VWS V14.01,2013-05-14 18:07:00,
2013-05-14 11:12:00,82.0,28.1,29.74,NW,315,7.0,7.0,14,0.00,,SCT300,0.00,895.00,VWS V14.01,2013-05-14 18:12:00,
2013-05-14 11:17:00,82.2,26.5,29.74,NNW,338,3.0,4.0,13,0.00,,SCT300,0.00,916.00,VWS V14.01,2013-05-14 18:17:00,
2013-05-14 11:22:00,82.8,27.0,29.74,NNW,338,3.0,3.0,13,0.00,,SCT300,0.00,879.00,VWS V14.01,2013-05-14 18:22:00,
2013-05-14 11:27:00,83.3,27.4,29.74,NE,53,0.0,2.0,13,0.00,,SCT300,0.00,898.00,VWS V14.01,2013-05-14 18:27:00,
2013-05-14 11:32:00,84.7,26.5,29.74,ESE,122,2.0,7.0,12,0.00,,SCT300,0.00,861.00,VWS V14.01,2013-05-14 18:32:00,
2013-05-14 11:37:00,85.5,27.1,29.74,East,88,3.0,7.0,12,0.00,,SCT300,0.00,988.00,VWS V14.01,2013-05-14 18:37:00,
2013-05-14 11:42:00,85.0,26.8,29.74,NE,45,3.0,6.0,12,0.00,,SCT300,0.00,810.00,VWS V14.01,2013-05-14 18:42:00,
2013-05-14 11:47:00,84.1,26.1,29.74,NNE,32,3.0,8.0,12,0.00,,SCT300,0.00,649.00,VWS V14.01,2013-05-14 18:47:00,
2013-05-14 11:52:00,83.0,27.1,29.73,NNE,33,6.0,9.0,13,0.00,,SCT300,0.00,596.00,VWS V14.01,2013-05-14 18:52:00,
2013-05-14 11:57:00,82.7,26.9,29.73,NNW,338,7.0,8.0,13,0.00,,SCT300,0.00,768.00,VWS V14.01,2013-05-14 18:57:00,
2013-05-14 12:02:00,82.9,27.1,29.73,NW,325,2.0,5.0,13,0.00,,BKN300,0.00,721.00,VWS V14.01,2013-05-14 19:02:00,
2013-05-14 12:07:00,84.1,28.0,29.72,NNW,342,4.0,6.0,13,0.00,,BKN300,0.00,970.00,VWS V14.01,2013-05-14 19:07:00,
2013-05-14 12:12:00,84.2,28.1,29.72,NNW,348,8.0,8.0,13,0.00,,BKN300,0.00,875.00,VWS V14.01,2013-05-14 19:12:00,
2013-05-14 12:17:00,84.1,26.1,29.72,NNE,20,4.0,7.0,12,0.00,,BKN300,0.00,942.00,VWS V14.01,2013-05-14 19:17:00,
2013-05-14 12:22:00,84.8,26.6,29.72,North,360,6.0,6.0,12,0.00,,BKN300,0.00,932.00,VWS V14.01,2013-05-14 19:22:00,
2013-05-14 12:27:00,84.8,26.6,29.72,NNW,344,5.0,6.0,12,0.00,,BKN300,0.00,928.00,VWS V14.01,2013-05-14 19:27:00,
2013-05-14 12:32:00,84.3,26.2,29.72,ESE,107,3.0,8.0,12,0.00,,BKN300,0.00,928.00,VWS V14.01,2013-05-14 19:32:00,
2013-05-14 12:37:00,84.8,26.6,29.71,ESE,123,3.0,4.0,12,0.00,,BKN300,0.00,928.00,VWS V14.01,2013-05-14 19:37:00,
2013-05-14 12:42:00,86.4,25.7,29.71,ESE,120,0.0,4.0,11,0.00,,BKN300,0.00,930.00,VWS V14.01,2013-05-14 19:42:00,
2013-05-14 12:47:00,85.7,25.2,29.71,NE,44,5.0,11.0,11,0.00,,BKN300,0.00,928.00,VWS V14.01,2013-05-14 19:47:00,
2013-05-14 12:52:00,85.6,25.1,29.70,ENE,59,2.0,3.0,11,0.00,,BKN300,0.00,930.00,VWS V14.01,2013-05-14 19:52:00,
2013-05-14 12:57:00,86.5,25.8,29.70,East,86,3.0,3.0,11,0.00,,BKN300,0.00,932.00,VWS V14.01,2013-05-14 19:57:00,
2013-05-14 13:02:00,87.3,24.1,29.70,ENE,59,0.0,2.0,10,0.00,,SCT250,0.00,930.00,VWS V14.01,2013-05-14 20:02:00,
2013-05-14 13:07:00,87.2,24.1,29.70,NE,37,4.0,7.0,10,0.00,,SCT250,0.00,928.00,VWS V14.01,2013-05-14 20:07:00,
2013-05-14 13:12:00,86.5,23.5,29.69,NW,326,7.0,9.0,10,0.00,,SCT250,0.00,928.00,VWS V14.01,2013-05-14 20:12:00,
2013-05-14 13:17:00,86.1,23.2,29.69,NNW,340,4.0,7.0,10,0.00,,SCT250,0.00,928.00,VWS V14.01,2013-05-14 20:17:00,
2013-05-14 13:22:00,86.4,23.5,29.69,WSW,244,5.0,8.0,10,0.00,,SCT250,0.00,939.00,VWS V14.01,2013-05-14 20:22:00,
2013-05-14 13:27:00,87.6,24.4,29.69,West,266,1.0,3.0,10,0.00,,SCT250,0.00,853.00,VWS V14.01,2013-05-14 20:27:00,
2013-05-14 13:32:00,86.5,23.5,29.69,NNW,330,2.0,7.0,10,0.00,,SCT250,0.00,309.00,VWS V14.01,2013-05-14 20:32:00,
2013-05-14 13:37:00,85.4,25.0,29.68,ENE,63,1.0,7.0,11,0.00,,SCT250,0.00,944.00,VWS V14.01,2013-05-14 20:37:00,
2013-05-14 13:42:00,87.0,23.9,29.68,ESE,122,0.0,7.0,10,0.00,,SCT250,0.00,1039.00,VWS V14.01,2013-05-14 20:42:00,
2013-05-14 13:47:00,88.3,24.9,29.68,ESE,105,2.0,6.0,10,0.00,,SCT250,0.00,1055.00,VWS V14.01,2013-05-14 20:47:00,
2013-05-14 13:52:00,89.0,22.9,29.68,NW,321,2.0,4.0,9,0.00,,SCT250,0.00,1085.00,VWS V14.01,2013-05-14 20:52:00,
2013-05-14 13:57:00,88.8,22.8,29.68,NW,313,3.0,9.0,9,0.00,,SCT250,0.00,1055.00,VWS V14.01,2013-05-14 20:57:00,
2013-05-14 14:02:00,89.3,23.1,29.68,West,279,2.0,4.0,9,0.00,,BKN250,0.00,1035.00,VWS V14.01,2013-05-14 21:02:00,
2013-05-14 14:07:00,90.3,23.9,29.68,ENE,59,2.0,3.0,9,0.00,,BKN250,0.00,962.00,VWS V14.01,2013-05-14 21:07:00,
2013-05-14 14:12:00,88.7,22.7,29.67,NNE,13,5.0,6.0,9,0.00,,BKN250,0.00,856.00,VWS V14.01,2013-05-14 21:12:00,
2013-05-14 14:17:00,87.8,22.0,29.67,NNW,340,6.0,9.0,9,0.00,,BKN250,0.00,809.00,VWS V14.01,2013-05-14 21:17:00,
2013-05-14 14:22:00,87.7,21.9,29.67,WNW,291,4.0,10.0,9,0.00,,BKN250,0.00,652.00,VWS V14.01,2013-05-14 21:22:00,
2013-05-14 14:27:00,87.5,21.8,29.67,West,277,1.0,7.0,9,0.00,,BKN250,0.00,573.00,VWS V14.01,2013-05-14 21:27:00,
2013-05-14 14:32:00,87.7,21.9,29.67,SW,227,1.0,9.0,9,0.00,,BKN250,0.00,594.00,VWS V14.01,2013-05-14 21:32:00,
2013-05-14 14:37:00,87.7,21.9,29.67,WNW,294,5.0,10.0,9,0.00,,BKN250,0.00,650.00,VWS V14.01,2013-05-14 21:37:00,
2013-05-14 14:42:00,86.9,18.6,29.67,NW,314,9.0,11.0,8,0.00,,BKN250,0.00,438.00,VWS V14.01,2013-05-14 21:42:00,
2013-05-14 14:47:00,86.2,18.1,29.67,WNW,288,8.0,13.0,8,0.00,,BKN250,0.00,388.00,VWS V14.01,2013-05-14 21:47:00,
2013-05-14 14:52:00,85.8,14.7,29.67,NNW,340,7.0,11.0,7,0.00,,BKN250,0.00,357.00,VWS V14.01,2013-05-14 21:52:00,
2013-05-14 14:57:00,85.1,14.2,29.67,WNW,285,4.0,5.0,7,0.00,,BKN250,0.00,343.00,VWS V14.01,2013-05-14 21:57:00,
2013-05-14 15:02:00,85.5,14.5,29.67,West,276,0.0,4.0,7,0.00,,BKN250,0.00,327.00,VWS V14.01,2013-05-14 22:02:00,
2013-05-14 15:07:00,85.4,14.4,29.67,South,177,2.0,6.0,7,0.00,,BKN250,0.00,308.00,VWS V14.01,2013-05-14 22:07:00,
2013-05-14 15:12:00,85.2,17.3,29.67,WSW,241,7.0,7.0,8,0.00,,BKN250,0.00,297.00,VWS V14.01,2013-05-14 22:12:00,
2013-05-14 15:17:00,85.2,17.3,29.66,SW,220,6.0,7.0,8,0.00,,BKN250,0.00,295.00,VWS V14.01,2013-05-14 22:17:00,
2013-05-14 15:22:00,85.3,20.1,29.66,SW,220,5.0,11.0,9,0.00,,BKN250,0.00,302.00,VWS V14.01,2013-05-14 22:22:00,
2013-05-14 15:27:00,85.3,20.1,29.66,WNW,282,7.0,12.0,9,0.00,,BKN250,0.00,325.00,VWS V14.01,2013-05-14 22:27:00,
2013-05-14 15:32:00,85.2,20.1,29.66,NW,322,4.0,10.0,9,0.00,,BKN250,0.00,360.00,VWS V14.01,2013-05-14 22:32:00,
2013-05-14 15:37:00,84.7,22.2,29.66,WNW,292,5.0,7.0,10,0.00,,BKN250,0.00,387.00,VWS V14.01,2013-05-14 22:37:00,
2013-05-14 15:42:00,85.2,20.1,29.66,West,280,1.0,7.0,9,0.00,,BKN250,0.00,424.00,VWS V14.01,2013-05-14 22:42:00,
2013-05-14 15:47:00,85.6,22.9,29.66,WNW,298,2.0,10.0,10,0.00,,BKN250,0.00,417.00,VWS V14.01,2013-05-14 22:47:00,
2013-05-14 15:52:00,86.3,20.9,29.65,West,268,2.0,10.0,9,0.00,,BKN250,0.00,452.00,VWS V14.01,2013-05-14 22:52:00,
2013-05-14 15:57:00,86.7,21.2,29.65,WSW,250,8.0,12.0,9,0.00,,BKN250,0.00,450.00,VWS V14.01,2013-05-14 22:57:00,
2013-05-14 16:02:00,86.3,20.9,29.65,WSW,250,9.0,15.0,9,0.00,,OVC250,0.00,422.00,VWS V14.01,2013-05-14 23:02:00,
2013-05-14 16:07:00,86.2,20.8,29.65,West,269,10.0,12.0,9,0.00,,OVC250,0.00,376.00,VWS V14.01,2013-05-14 23:07:00,
2013-05-14 16:12:00,85.5,22.8,29.65,SW,234,12.0,18.0,10,0.00,,OVC250,0.00,290.00,VWS V14.01,2013-05-14 23:12:00,
2013-05-14 16:17:00,84.7,22.2,29.65,NNW,344,9.0,15.0,10,0.00,,OVC250,0.00,236.00,VWS V14.01,2013-05-14 23:17:00,
2013-05-14 16:22:00,84.3,24.1,29.66,NW,313,5.0,10.0,11,0.00,,,0.00,192.00,VWS V14.01,2013-05-14 23:22:00,
2013-05-14 16:27:00,84.2,24.0,29.66,West,263,10.0,10.0,11,0.00,,,0.00,158.00,VWS V14.01,2013-05-14 23:27:00,
2013-05-14 16:32:00,84.0,23.9,29.67,West,280,10.0,12.0,11,0.00,,,0.00,132.00,VWS V14.01,2013-05-14 23:32:00,
2013-05-14 16:37:00,83.1,29.0,29.68,West,261,14.0,24.0,14,0.00,,,0.00,118.00,VWS V14.01,2013-05-14 23:37:00,
2013-05-14 16:42:00,80.7,28.8,29.68,SW,229,20.0,23.0,15,0.00,,,0.00,127.00,VWS V14.01,2013-05-14 23:42:00,
2013-05-14 16:47:00,80.0,29.8,29.68,WSW,249,21.0,24.0,16,0.00,,,0.00,169.00,VWS V14.01,2013-05-14 23:47:00,
2013-05-14 16:52:00,79.0,30.5,29.68,WSW,246,22.0,30.0,17,0.00,,,0.00,229.00,VWS V14.01,2013-05-14 23:52:00,
2013-05-14 16:57:00,78.7,31.7,29.68,West,262,11.0,26.0,18,0.00,,,0.00,255.00,VWS V14.01,2013-05-14 23:57:00,
2013-05-14 17:02:00,78.7,31.7,29.68,WSW,248,14.0,29.0,18,0.00,,BKN250,0.00,255.00,VWS V14.01,2013-05-15 00:02:00,
2013-05-14 17:07:00,78.7,31.7,29.68,SSW,200,12.0,24.0,18,0.00,,BKN250,0.00,248.00,VWS V14.01,2013-05-15 00:07:00,
2013-05-14 17:12:00,78.5,31.5,29.68,SW,235,9.0,23.0,18,0.00,,BKN250,0.00,234.00,VWS V14.01,2013-05-15 00:12:00,
2013-05-14 17:17:00,78.4,31.4,29.69,WSW,237,18.0,22.0,18,0.00,,BKN250,0.00,221.00,VWS V14.01,2013-05-15 00:17:00,
2013-05-14 17:22:00,78.4,31.4,29.68,WSW,258,17.0,22.0,18,0.00,,BKN250,0.00,213.00,VWS V14.01,2013-05-15 00:22:00,
2013-05-14 17:27:00,78.2,32.6,29.69,SW,215,11.0,22.0,19,0.00,,BKN250,0.00,192.00,VWS V14.01,2013-05-15 00:27:00,
2013-05-14 17:32:00,78.0,32.4,29.68,SW,225,17.0,19.0,19,0.00,,BKN250,0.00,167.00,VWS V14.01,2013-05-15 00:32:00,
2013-05-14 17:37:00,77.8,32.3,29.68,West,269,11.0,22.0,19,0.00,,BKN250,0.00,148.00,VWS V14.01,2013-05-15 00:37:00,
2013-05-14 17:42:00,77.5,33.3,29.69,South,183,13.0,17.0,20,0.00,,BKN250,0.00,135.00,VWS V14.01,2013-05-15 00:42:00,
2013-05-14 17:47:00,77.2,33.1,29.68,SSW,192,13.0,21.0,20,0.00,,BKN250,0.00,127.00,VWS V14.01,2013-05-15 00:47:00,
2013-05-14 17:52:00,77.0,34.1,29.68,South,182,8.0,16.0,21,0.00,,BKN250,0.00,120.00,VWS V14.01,2013-05-15 00:52:00,
2013-05-14 17:58:00,76.6,33.8,29.68,South,179,6.0,18.0,21,0.00,,BKN250,0.00,116.00,VWS V14.01,2013-05-15 00:58:00,
2013-05-14 18:03:00,75.7,33.0,29.68,WSW,239,15.0,22.0,21,0.00,,BKN200,0.00,111.00,VWS V14.01,2013-05-15 01:03:00,
2013-05-14 18:08:00,75.3,33.9,29.69,SW,215,12.0,14.0,22,0.00,,BKN200,0.00,102.00,VWS V14.01,2013-05-15 01:08:00,
2013-05-14 18:13:00,75.2,32.6,29.68,SW,229,14.0,16.0,21,0.00,,BKN200,0.00,69.00,VWS V14.01,2013-05-15 01:13:00,
2013-05-14 18:18:00,75.4,34.0,29.68,SW,229,6.0,14.0,22,0.00,,BKN200,0.00,65.00,VWS V14.01,2013-05-15 01:18:00,
2013-05-14 18:23:00,75.5,32.9,29.68,WSW,245,14.0,15.0,21,0.00,,BKN200,0.00,63.00,VWS V14.01,2013-05-15 01:23:00,
2013-05-14 18:28:00,75.5,32.9,29.68,West,259,11.0,14.0,21,0.00,,BKN200,0.00,77.00,VWS V14.01,2013-05-15 01:28:00,
2013-05-14 18:33:00,75.6,33.0,29.68,SW,229,6.0,13.0,21,0.00,,BKN200,0.00,76.00,VWS V14.01,2013-05-15 01:33:00,
2013-05-14 18:38:00,75.6,33.0,29.68,WSW,240,12.0,12.0,21,0.00,,BKN200,0.00,72.00,VWS V14.01,2013-05-15 01:38:00,
2013-05-14 18:43:00,75.8,33.1,29.68,SW,221,5.0,10.0,21,0.00,,BKN200,0.00,72.00,VWS V14.01,2013-05-15 01:43:00,
2013-05-14 18:48:00,76.1,34.5,29.68,South,184,5.0,13.0,22,0.00,,BKN200,0.00,144.00,VWS V14.01,2013-05-15 01:48:00,
2013-05-14 18:53:00,76.3,34.7,29.68,SW,218,5.0,10.0,22,0.00,,BKN200,0.00,169.00,VWS V14.01,2013-05-15 01:53:00,
2013-05-14 18:58:00,75.7,34.2,29.68,SW,215,10.0,11.0,22,0.00,,BKN200,0.00,69.00,VWS V14.01,2013-05-15 01:58:00,
2013-05-14 19:03:00,75.3,35.0,29.68,SSW,197,6.0,12.0,23,0.00,,BKN200,0.00,67.00,VWS V14.01,2013-05-15 02:03:00,
2013-05-14 19:08:00,75.4,35.1,29.69,SW,222,3.0,9.0,23,0.00,,BKN200,0.00,67.00,VWS V14.01,2013-05-15 02:08:00,
2013-05-14 19:13:00,75.5,34.0,29.69,SW,234,10.0,13.0,22,0.00,,BKN200,0.00,69.00,VWS V14.01,2013-05-15 02:13:00,
2013-05-14 19:18:00,75.9,34.4,29.69,SW,223,6.0,11.0,22,0.00,,BKN200,0.00,69.00,VWS V14.01,2013-05-15 02:18:00,
2013-05-14 19:23:00,76.1,34.5,29.69,WSW,246,6.0,12.0,22,0.00,,BKN200,0.00,72.00,VWS V14.01,2013-05-15 02:23:00,
2013-05-14 19:28:00,76.7,33.9,29.69,WSW,257,7.0,13.0,21,0.00,,BKN200,0.00,65.00,VWS V14.01,2013-05-15 02:28:00,
2013-05-14 19:33:00,77.1,34.2,29.69,SW,231,5.0,17.0,21,0.00,,BKN200,0.00,60.00,VWS V14.01,2013-05-15 02:33:00,
2013-05-14 19:38:00,77.1,34.2,29.69,SW,224,10.0,14.0,21,0.00,,BKN200,0.00,49.00,VWS V14.01,2013-05-15 02:38:00,
2013-05-14 19:43:00,76.9,35.2,29.69,WSW,243,13.0,15.0,22,0.00,,BKN200,0.00,35.00,VWS V14.01,2013-05-15 02:43:00,
2013-05-14 19:48:00,76.7,35.0,29.69,WSW,238,8.0,15.0,22,0.00,,BKN200,0.00,26.00,VWS V14.01,2013-05-15 02:48:00,
2013-05-14 19:53:00,76.5,34.9,29.69,SW,217,11.0,14.0,22,0.00,,BKN200,0.00,12.00,VWS V14.01,2013-05-15 02:53:00,
2013-05-14 19:58:00,76.1,35.7,29.69,SW,231,5.0,13.0,23,0.00,,BKN200,0.00,5.00,VWS V14.01,2013-05-15 02:58:00,
2013-05-14 20:03:00,75.8,36.5,29.69,WSW,252,7.0,15.0,24,0.00,,BKN200,0.00,0.00,VWS V14.01,2013-05-15 03:03:00,
2013-05-14 20:08:00,75.5,37.2,29.69,WSW,247,10.0,12.0,25,0.00,,BKN200,0.00,0.00,VWS V14.01,2013-05-15 03:08:00,
2013-05-14 20:13:00,75.2,38.0,29.69,SSW,212,9.0,12.0,26,0.00,,BKN200,0.00,0.00,VWS V14.01,2013-05-15 03:13:00,
2013-05-14 20:18:00,74.9,37.7,29.69,WSW,244,5.0,8.0,26,0.00,,BKN200,0.00,0.00,VWS V14.01,2013-05-15 03:18:00,
2013-05-14 20:23:00,74.6,38.5,29.70,WSW,251,6.0,15.0,27,0.00,,BKN200,0.00,0.00,VWS V14.01,2013-05-15 03:23:00,
2013-05-14 20:28:00,74.4,38.3,29.70,WNW,286,10.0,14.0,27,0.00,,BKN200,0.00,0.00,VWS V14.01,2013-05-15 03:28:00,
2013-05-14 20:33:00,74.1,39.0,29.70,WNW,286,6.0,14.0,28,0.00,,BKN200,0.00,0.00,VWS V14.01,2013-05-15 03:33:00,
2013-05-14 20:38:00,73.9,38.8,29.70,West,261,11.0,13.0,28,0.00,,BKN200,0.00,0.00,VWS V14.01,2013-05-15 03:38:00,
2013-05-14 20:43:00,73.6,39.4,29.70,WSW,250,13.0,16.0,29,0.00,,BKN200,0.00,0.00,VWS V14.01,2013-05-15 03:43:00,
2013-05-14 20:48:00,73.4,39.2,29.70,WSW,241,10.0,11.0,29,0.00,,BKN200,0.00,0.00,VWS V14.01,2013-05-15 03:48:00,
2013-05-14 20:53:00,73.2,39.9,29.70,West,265,6.0,12.0,30,0.00,,BKN200,0.00,0.00,VWS V14.01,2013-05-15 03:53:00,
2013-05-14 20:58:00,72.8,39.6,29.71,SW,231,6.0,16.0,30,0.00,,BKN200,0.00,0.00,VWS V14.01,2013-05-15 03:58:00,
2013-05-14 21:01:00,72.7,39.5,29.71,West,273,8.0,12.0,30,0.00,,BKN200,0.00,0.00,VWS V14.01,2013-05-15 04:01:00,
2013-05-14 21:06:00,72.5,39.3,29.71,West,261,7.0,11.0,30,0.00,,BKN200,0.00,0.00,VWS V14.01,2013-05-15 04:06:00,
2013-05-14 21:11:00,72.3,40.0,29.71,WSW,249,4.0,9.0,31,0.00,,BKN200,0.00,0.00,VWS V14.01,2013-05-15 04:11:00,
2013-05-14 21:16:00,72.1,39.8,29.72,WSW,238,6.0,10.0,31,0.00,,BKN200,0.00,0.00,VWS V14.01,2013-05-15 04:16:00,
2013-05-14 21:21:00,71.9,39.7,29.72,WSW,258,2.0,7.0,31,0.00,,BKN200,0.00,0.00,VWS V14.01,2013-05-15 04:21:00,
2013-05-14 21:26:00,71.8,39.6,29.73,WSW,257,1.0,5.0,31,0.00,,BKN200,0.00,0.00,VWS V14.01,2013-05-15 04:26:00,
2013-05-14 21:31:00,71.6,39.4,29.73,WSW,249,4.0,4.0,31,0.00,,BKN200,0.00,0.00,VWS V14.01,2013-05-15 04:31:00,
2013-05-14 21:36:00,71.4,39.2,29.73,WSW,248,5.0,6.0,31,0.00,,BKN200,0.00,0.00,VWS V14.01,2013-05-15 04:36:00,
2013-05-14 21:41:00,71.3,39.1,29.73,SW,236,8.0,9.0,31,0.00,,BKN200,0.00,0.00,VWS V14.01,2013-05-15 04:41:00,
2013-05-14 21:46:00,71.4,37.5,29.73,WSW,249,3.0,9.0,29,0.00,,BKN200,0.00,0.00,VWS V14.01,2013-05-15 04:46:00,
2013-05-14 21:51:00,71.3,37.4,29.73,West,259,5.0,8.0,29,0.00,,BKN200,0.00,0.00,VWS V14.01,2013-05-15 04:51:00,
2013-05-14 21:56:00,71.2,37.3,29.74,SW,236,3.0,8.0,29,0.00,,BKN200,0.00,0.00,VWS V14.01,2013-05-15 04:56:00,
2013-05-14 22:01:00,71.0,37.2,29.74,WSW,251,2.0,6.0,29,0.00,,BKN120,0.00,0.00,VWS V14.01,2013-05-15 05:01:00,
2013-05-14 22:06:00,70.8,37.0,29.74,West,271,4.0,7.0,29,0.00,,BKN120,0.00,0.00,VWS V14.01,2013-05-15 05:06:00,
2013-05-14 22:11:00,70.7,36.0,29.74,West,273,2.0,6.0,28,0.00,,BKN120,0.00,0.00,VWS V14.01,2013-05-15 05:11:00,
2013-05-14 22:16:00,70.5,36.7,29.74,WSW,257,0.0,6.0,29,0.00,,BKN120,0.00,0.00,VWS V14.01,2013-05-15 05:16:00,
2013-05-14 22:21:00,70.3,36.6,29.74,WNW,298,5.0,6.0,29,0.00,,BKN120,0.00,0.00,VWS V14.01,2013-05-15 05:21:00,
2013-05-14 22:26:00,70.2,36.5,29.74,WNW,290,3.0,6.0,29,0.00,,BKN120,0.00,0.00,VWS V14.01,2013-05-15 05:26:00,
2013-05-14 22:31:00,69.8,36.1,29.74,WNW,285,3.0,4.0,29,0.00,,BKN120,0.00,0.00,VWS V14.01,2013-05-15 05:31:00,
2013-05-14 22:36:00,69.6,36.8,29.74,West,277,1.0,6.0,30,0.00,,BKN120,0.00,0.00,VWS V14.01,2013-05-15 05:36:00,
2013-05-14 22:41:00,69.3,36.6,29.74,West,271,2.0,4.0,30,0.00,,BKN120,0.00,0.00,VWS V14.01,2013-05-15 05:41:00,
2013-05-14 22:46:00,69.1,36.4,29.74,WNW,296,1.0,4.0,30,0.00,,BKN120,0.00,0.00,VWS V14.01,2013-05-15 05:46:00,
2013-05-14 22:51:00,68.9,36.2,29.74,West,270,3.0,4.0,30,0.00,,BKN120,0.00,0.00,VWS V14.01,2013-05-15 05:51:00,
2013-05-14 22:56:00,68.6,36.8,29.74,WNW,298,7.0,7.0,31,0.00,,BKN120,0.00,0.00,VWS V14.01,2013-05-15 05:56:00,
2013-05-14 23:01:00,68.6,36.8,29.74,West,279,1.0,3.0,31,0.00,,CLR,0.00,0.00,VWS V14.01,2013-05-15 06:01:00,
2013-05-14 23:06:00,68.7,36.9,29.74,West,280,5.0,5.0,31,0.00,,CLR,0.00,0.00,VWS V14.01,2013-05-15 06:06:00,
2013-05-14 23:11:00,68.7,36.9,29.74,West,268,0.0,6.0,31,0.00,,CLR,0.00,0.00,VWS V14.01,2013-05-15 06:11:00,
2013-05-14 23:16:00,68.5,36.7,29.74,West,268,0.0,1.0,31,0.00,,CLR,0.00,0.00,VWS V14.01,2013-05-15 06:16:00,
2013-05-14 23:21:00,68.1,36.3,29.75,WNW,290,1.0,4.0,31,0.00,,CLR,0.00,0.00,VWS V14.01,2013-05-15 06:21:00,
2013-05-14 23:26:00,67.9,36.2,29.74,WNW,290,1.0,4.0,31,0.00,,CLR,0.00,0.00,VWS V14.01,2013-05-15 06:26:00,
2013-05-14 23:31:00,67.6,35.9,29.75,West,261,1.0,3.0,31,0.00,,CLR,0.00,0.00,VWS V14.01,2013-05-15 06:31:00,
2013-05-14 23:36:00,67.3,36.5,29.75,West,261,0.0,2.0,32,0.00,,CLR,0.00,0.00,VWS V14.01,2013-05-15 06:36:00,
2013-05-14 23:41:00,66.4,36.5,29.75,West,261,0.0,0.0,33,0.00,,CLR,0.00,0.00,VWS V14.01,2013-05-15 06:41:00,
2013-05-14 23:46:00,65.9,36.8,29.75,West,261,0.0,0.0,34,0.00,,CLR,0.00,0.00,VWS V14.01,2013-05-15 06:46:00,
2013-05-14 23:51:00,65.4,37.1,29.75,West,261,0.0,1.0,35,0.00,,CLR,0.00,0.00,VWS V14.01,2013-05-15 06:51:00,
2013-05-14 23:56:00,64.4,36.9,29.75,West,261,0.0,0.0,36,0.00,,CLR,0.00,0.00,VWS V14.01,2013-05-15 06:56:00,